Regional Weather Roundup
Issued by NWS Boston, MA

Home | Current Version | Previous Version | Text Only | Print | Product List | Glossary On
Versions: 1 2 3 4 5 6 7 8 9 10 11 12 13 14 15 16 17 18 19 20 21 22 23 24 25 26 27 28
000
ASUS41 KBOX 221110
RWRBOX

REGIONAL WEATHER ROUNDUP
NATIONAL WEATHER SERVICE TAUNTON MA
600 AM EST SUN JAN 22 2017

NOTE:  "FAIR" INDICATES FEW OR NO CLOUDS BELOW 12,000 FEET WITH NO
SIGNIFICANT WEATHER AND/OR OBSTRUCTIONS TO VISIBILITY.

MAZALL-221200-
EASTERN MASSACHUSETTS

CITY           SKY/WX    TMP DP  RH WIND       PRES   REMARKS
BOSTON         MOCLDY    39  38  96 CALM      29.77R
BEVERLY        CLOUDY    38  37  97 CALM      29.76R FOG
LAWRENCE       CLOUDY    37  36  96 CALM      29.77R FOG
BEDFORD        MOCLDY    33  31  92 CALM      29.76R
BLUE HILL        N/A     45  40  82 N8        29.74R
NORWOOD        CLOUDY    34  34 100 CALM      29.77R FOG
MARSHFIELD     CLOUDY    37  37 100 W5        29.76R FOG
PLYMOUTH       CLOUDY    36  35  96 CALM      29.77R FOG
TAUNTON        CLOUDY    35  34  96 CALM      29.76R FOG
NEW BEDFORD    CLOUDY    38  36  92 CALM      29.76R FOG
$$

MAZALL-221200-
CAPE COD AND THE ISLANDS

CITY           SKY/WX    TMP DP  RH WIND       PRES   REMARKS
FALMOUTH       FOG      N/A N/A N/A MISG      29.75  VSB<1/4
HYANNIS        FOG       38  37  97 SW5       29.75R VSB 1/2
CHATHAM        CLOUDY    38  37  97 SW3       29.77R FOG
PROVINCETOWN   CLOUDY    38  38 100 SW5       29.77R FOG
NANTUCKET      FOG       41  40  96 W5        29.76R VSB 1/4
MARTHAS VNYRD  FOG       40  39  97 CALM      29.75R VSB 3/4
$$

MAZALL-221200-
CENTRAL AND WESTERN MASSACHUSETTS

CITY           SKY/WX    TMP DP  RH WIND       PRES   REMARKS
WORCESTER      CLOUDY    42  40  92 NE5       29.74R
FITCHBURG      CLOUDY    36  35  96 CALM      29.77R
ORANGE         FOG       32  32 100 CALM      29.76R VSB 1/2
SPRINGFIELD    FOG       35  34  98 CALM      29.74R VSB 1/2
WESTFIELD      FOG       35  35 100 CALM      29.75R VSB 1/2
NORTH ADAMS    CLOUDY    34  33  96 CALM      29.74S FOG
PITTSFIELD     CLOUDY    34  33  96 CALM      29.71S FOG
$$

RIZALL-221200-
RHODE ISLAND

CITY           SKY/WX    TMP DP  RH WIND       PRES   REMARKS
PROVIDENCE     MOCLDY    37  35  92 N3        29.77R FOG
NEWPORT        CLOUDY    39  39 100 CALM      29.75R FOG
SMITHFIELD     CLOUDY    37  37 100 CALM      29.76R FOG
WESTERLY       CLOUDY    40  37  89 CALM      29.77R FOG
$$

CTZALL-221200-
CONNECTICUT

CITY           SKY/WX    TMP DP  RH WIND       PRES   REMARKS
BRADLEY INTL   FOG       38  38 100 CALM      29.75R VSB 1/4
HARTFORD       CLOUDY    36  36 100 CALM      29.76R FOG
BRIDGEPORT     FOG       42  40  92 E5        29.74R VSB 1/4
DANBURY        CLOUDY    38  37  97 CALM      29.73S FOG
GROTON         CLOUDY    40  39  97 CALM      29.76R FOG
NEW HAVEN      FOG       41  41 100 SE3       29.74S VSB 1/4
CHESTER        FOG       39  39 100 CALM      29.74S VSB<1/4
MERIDEN        FOG       41  39  93 CALM      29.75S VSB 1/4
WILLIMANTIC    FOG       36  35  96 CALM      29.77R VSB 1/4
OXFORD         CLEAR     39  37  93 E3        29.73F FOG
$$

MEZ002-015-021-024-NHZ003-005-008-011-012-014-VTZ005-008-221200-
NORTHERN NEW ENGLAND

CITY           SKY/WX    TMP DP  RH WIND       PRES   REMARKS
PORTLAND ME    CLOUDY    37  33  85 NE6       29.77R
BANGOR ME      FLURRIES  32  31  96 CALM      29.82R
CONCORD NH     PTCLDY    31  30  96 CALM      29.76R FOG
MANCHESTER NH  NOT AVBL
NASHUA NH      NOT AVBL
PORTSMOUTH NH  CLOUDY    35  33  95 NW5       29.74R WCI  30
JAFFREY NH     NOT AVBL
KEENE NH       NOT AVBL
BURLINGTON VT  CLOUDY    37  35  92 NW6       29.78R
MT. WASHINGTON FOG       28  28 100 NW47G60     N/A  VSB 1/16WCI  10
$$

NYZ052-076-221200-
EASTERN NEW YORK

CITY           SKY/WX    TMP DP  RH WIND       PRES   REMARKS
ALBANY         FOG       39  36  89 CALM      29.75S VSB 1/2
NEW YORK CITY  CLOUDY    46  43  89 NE6       29.73R FOG
$$

ANZALL-221200-
MARINE OBSERVATIONS

STATION/POSITION TIME  TEMP    WIND        PRES    VSBY  WAVE
                       AIR SEA DIR/SP/G                  HT/PER
                 (UTC) (F)     (DEG/KT/KT) (MB)    (MI)  (FT/S)
BOSTON BUOY      0950   42 44  230/  4/  6 1005.8          4/13
BUZZARDS BAY     1000   40     240/ 10/ 12 1007.6F
NANTUCKET SOUND  0950   40 41  230/  8/  8 1007.0          1/12
MASS BAY-STELLWA 1004   44 44  320/  6/  6 1006.0F  1 7/8  4/13
ISLE OF SHOALS   1000   43      10/  7/  8 1006.7F
S OF BLOCK IS    1055      47                N/A           4/12
$$

......................KEY.........................
  SKY/WX - SKY CONDITION/PRESENT WEATHER
  TMP    - TEMPERATURE IN FAHRENHEIT
  DWPT   - DEWPOINT IN FAHRENHEIT
  RH     - RELATIVE HUMIDITY IN PERCENT
  WIND   - DIRECTION AND SPEED IN MPH
  PRES   - MEAN SEA LEVEL PRESSURE IN INCHES OF HG
  WCI    - WIND CHILL INDEX
  VSB    - VISIBILITY IN MILES
  HX     - HEAT INDEX
  TC     - TEMPERATURE IN CELSIUS
  VRB    - VARIABLE WIND DIRECTION
  N/A    - NOT AVAILABLE




USA.gov is the U.S. government's official web portal to all federal, state and local government web resources and services.